STARLINK-4104 (53163 NORAD) Tracking and Keplerian Element Data

This shows tracking and keplerian element data for the satellite.

Feedback or suggestion? Click here.




ElementValue
Catalog53163
NameSTARLINK-4104
Epoch Orbit1185
Epoch Day270.25001157
Epoch Year2022
RAAN58.118
Inclination53.2177
Eccentricity0.0001556
Argument of Perigee51.5757
Mean Anonmoly98.5193
Mean Motion15.20532991
Decay Rate-0.01069626
L11 53163U 22083AH 22270.25001157 -.01069626 00000+0 -52778-1 0 9998
L22 53163 53.2177 58.1180 0001556 51.5757 98.5193 15.20532991 11852

Live tracking and technical data element details for STARLINK-4104 (NORAD 53163). STARLINK-4104 can be tracked NOW for your location showing map with azimuth and elevation plus other details from your city location.

Track the satellite on the map from your city or location and see movement details for azimuth, elevation, latitude, longitude, range, height, and movement on the map or in text.







IsCatalogInMostPopularTable: catalog: 53163, numindb: 3
Update: records affected: 1



GetName: 53163 STARLINK-4104

Hit Count: updated at: Thu, 29 Sep 2022 11:06:39 GMT